{"data":{"norad_id":63283,"epoch":"2026-09-20T13:51:07.556256Z","epoch_age_seconds":152122,"freshness":"FRESH","line1":"1 63283U 25053U   26263.57717079  .00006082  00000+0  23029-3 0  9993","line2":"2 63283  42.9983 220.7432 0004081 261.3598  98.6792 15.27586614 86006","mean_motion":15.27586614,"eccentricity":0.0004081,"inclination_deg":42.9983,"raan_deg":220.7432,"arg_perigee_deg":261.3598,"mean_anomaly_deg":98.6792,"bstar":0.00023029,"rev_number":8600,"period_min":94.266340566401,"perigee_km":480.22924945221,"apogee_km":485.82933337926,"semimajor_km":6861.1662914157,"source":"CELESTRAK","updated_at":"2026-09-21T09:00:34.965760Z"}}